Tracking 33057 objects as of 23-Jan-2026
HD Live streaming from Space Station
objects crossing your sky now

THOR ABLESTAR DEB

Track THOR ABLESTAR DEB now!
10-day predictions


NORAD ID: 548
Int'l Code: 1961-015GH
Perigee: 578.8 km
Apogee: 723.8 km
Inclination: 66.7 °
Period: 97.6 minutes
Semi major axis: 7022 km
RCS: 0.028 m2 (small)
Launch date: June 29, 1961
Source: United States (US)
Launch site: AIR FORCE EASTERN TEST RANGE (AFETR)

Note: This is SATELLITE DEBRIS
Your satellite tracking list
Your tracking list is empty




NASA's NSSDC Master Catalog

Two Line Element Set (TLE):
1 00548U 61015GH  26022.62140883  .00004042  00000-0  56260-3 0  9996
2 00548  66.6719 356.8005 0103265 230.7110 128.4820 14.75304511382348
Source of the keplerian elements: AFSPC